Location: Oroua River
(40.4333°S, 175.4333°E)
Time: 15:36:42
(UTC+00:00)

NOSS 3-1 (A) - Pass Details

Date: 03 February 2023
Orbit: 689 x 1522 km, 63.4° (Epoch: 21 March)

Event Time Altitude Azimuth Distance (km) Brightness Sun altitude
Rises 12:31:54 0° 213° (SSW) 3,858 7.4 -33.1°
Reaches altitude 10° 12:34:50 10° 210° (SSW) 2,767 6.5 -33.1°
Enters shadow 12:40:08 54° 173° (S) 1,052 3.8 -33.0°
